Regional Weather Roundup
Issued by NWS

Home | Current Version | Previous Version | Text Only | Print | Product List | Glossary Off
Versions: 1 2 3 4 5 6 7 8 9 10 11 12 13 14 15 16 17 18 19 20 21 22 23 24 25 26 27 28 29 30 31 32 33 34 35 36 37 38 39 40 41 42 43 44 45 46 47 48 49 50

000
ASUS45 KPSR 030000
RWRAZ

ARIZONA HOURLY REGIONAL WEATHER ROUNDUP
NATIONAL WEATHER SERVICE PHOENIX AZ
500 PM MST TUE JUN 02 2015

NOTE: FAIR INDICATES FEW OR NO CLOUDS BELOW 12,000 FEET WITH NO
SIGNIFICANT WEATHER AND/OR OBSTRUCTIONS TO VISIBILITY.

AZZ001>003-036-030100-
NORTHWEST ARIZONA

CITY           SKY/WX    TMP DP  RH WIND       PRES   REMARKS
KINGMAN        SUNNY     89  13   6 SW20G30   29.90F
6HR MIN TEMP:  85; 6HR MAX TEMP:  91;

$$

AZZ004>008-015-016-018-030100-
NORTH CENTRAL ARIZONA

CITY           SKY/WX    TMP DP  RH WIND       PRES   REMARKS
GRAND CANYON   SUNNY     79  14   8 SW17G26   30.10F
6HR MIN TEMP:  74; 6HR MAX TEMP:  80;

WILLIAMS       SUNNY     75  12   9 SW21G28   30.20S
PRESCOTT       SUNNY     82  20  10 S14G20    30.03F
6HR MIN TEMP:  79; 6HR MAX TEMP:  84;

FLAGSTAFF      NOT AVBL
PAYSON         SUNNY     84  23  10 SW9G21    30.07F
PAGE           SUNNY     92  14   5 N5        29.87F
6HR MIN TEMP:  83; 6HR MAX TEMP:  93;

$$

AZZ009>014-017-030100-
NORTHEAST ARIZONA

CITY           SKY/WX    TMP DP  RH WIND       PRES   REMARKS
WINSLOW        NOT AVBL
SAINT JOHNS    SUNNY     87  25  10 SW18G25   30.03S
6HR MIN TEMP:  83; 6HR MAX TEMP:  90;

WINDOW ROCK    SUNNY     82  19   9 W16G26    30.11S
6HR MIN TEMP:  77; 6HR MAX TEMP:  84;

$$

AZZ023-030100-
GREATER PHOENIX AREA

CITY           SKY/WX    TMP DP  RH WIND       PRES   REMARKS
PHOENIX        SUNNY    102  21   5 W14G22    29.76F
6HR MIN TEMP:  95; 6HR MAX TEMP: 104;

GLENDALE       SUNNY    102  19   5 S12G20    29.78F
LUKE AFB       SUNNY    101  20   5 SW14      29.75F
6HR MIN TEMP:  93; 6HR MAX TEMP: 101;

DEER VALLEY    SUNNY     98  20   6 SW9       29.79F
6HR MIN TEMP:  91; 6HR MAX TEMP:  99;

SCOTTSDALE     SUNNY     99  18   5 SW10      29.81F
6HR MIN TEMP:  92; 6HR MAX TEMP: 100;

MESA-FALCON    SUNNY    100  23   6 W6          N/A
MESA-GATEWAY   SUNNY     99  27   8 W9G17     29.80F
CHANDLER       SUNNY    100  25   7 W12       29.78F
$$

AZZ027-028-030100-
SOUTHWEST MARICOPA COUNTY AND PINAL COUNTY

CITY           SKY/WX    TMP DP  RH WIND       PRES   REMARKS
CASA GRANDE    SUNNY    100  36  10 W6G16     29.79S
6HR MIN TEMP:  93; 6HR MAX TEMP: 100;

GILA BEND      SUNNY    103  17   4 W13G22    29.75F
6HR MIN TEMP:  93; 6HR MAX TEMP: 103;

$$

AZZ503-504-507>509-030100-
SOUTHEAST ARIZONA

CITY           SKY/WX    TMP DP  RH WIND       PRES   REMARKS
TUCSON         SUNNY    100  18   5 SW13G18   29.87F
6HR MIN TEMP:  94; 6HR MAX TEMP: 102;

DAVIS-MONTHAN  SUNNY     99  20   6 W13       29.86F
6HR MIN TEMP:  92; 6HR MAX TEMP: 100;

RYAN FIELD     SUNNY    100  28   8 W12G17    29.86F
NOGALES        LGT RAIN  92  17   6 SW18      30.00S
6HR MIN TEMP:  91; 6HR MAX TEMP:  96; 6HR PCP: TRACE;

SIERRA VISTA   SUNNY     89  14   6 W17G28    30.05F
6HR MIN TEMP:  88; 6HR MAX TEMP:  92;

SAFFORD        PTSUNNY  100  22   6 W17       29.84F
6HR MIN TEMP:  90; 6HR MAX TEMP: 101;

$$

AZZ020-021-025-026-031-030100-
SOUTHWEST ARIZONA

CITY           SKY/WX    TMP DP  RH WIND       PRES   REMARKS
YUMA           NOT AVBL
$$

CAZ031-033-041-043-047-048-061-030100-
SOUTHERN CALIFORNIA

CITY           SKY/WX    TMP DP  RH WIND       PRES   REMARKS
DOWNTOWN L.A.  SUNNY     72  57  59 MISG      29.92F
6HR MIN TEMP:  71; 6HR MAX TEMP:  76;

L.A. AIRPORT   MOSUNNY   66  57  72 W12       29.94F
6HR MIN TEMP:  66; 6HR MAX TEMP:  69;

SAN DIEGO      MOSUNNY   68  55  63 W6        29.97F
6HR MIN TEMP:  67; 6HR MAX TEMP:  72;

BURBANK        SUNNY     76  54  46 S10       29.91F
6HR MIN TEMP:  71; 6HR MAX TEMP:  77;

ONTARIO        SUNNY     79  50  36 W14G21    29.91F
6HR MIN TEMP:  74; 6HR MAX TEMP:  84;

RIVERSIDE      SUNNY     81  52  36 W9G18     29.90F
6HR MIN TEMP:  74; 6HR MAX TEMP:  84;

PALM SPRINGS   SUNNY    100  35  10 N22       29.74F
6HR MIN TEMP:  90; 6HR MAX TEMP: 101;

EL CENTRO NAS  MOSUNNY   98  32  10 SW24      29.75F
6HR MIN TEMP:  94; 6HR MAX TEMP: 101;

IMPERIAL       SUNNY     97  33  10 SW25G33   29.72F
6HR MIN TEMP:  91; 6HR MAX TEMP: 100;

BLYTHE         SUNNY    100  23   6 SW16      29.72F
6HR MIN TEMP:  90; 6HR MAX TEMP: 101;

$$

NVZ020-UTZ003-030100-
SOUTHERN NEVADA-UTAH

CITY           SKY/WX    TMP DP  RH WIND       PRES   REMARKS
LAS VEGAS      NOT AVBL
SALT LAKE CITY MOSUNNY   80  43  26 N9        29.92S
6HR MIN TEMP:  75; 6HR MAX TEMP:  80;

$$

NMZ009-TXZ055-030100-
NEW MEXICO-WEST TEXAS

CITY           SKY/WX    TMP DP  RH WIND       PRES   REMARKS
ALBUQUERQUE    MOSUNNY   88  21   8 S7        29.98F
6HR MIN TEMP:  81; 6HR MAX TEMP:  91;

EL PASO        MOSUNNY   97  20   6 W18       29.91F
6HR MIN TEMP:  94; 6HR MAX TEMP:  99;

$$


........................KEY........................
SKY/WX - SKY CONDITION/WEATHER
TMP    - TEMPERATURE IN FAHRENHEIT
DP     - DEW POINT IN FAHRENHEIT
RH     - RELATIVE HUMIDITY IN PERCENT
WIND   - DIRECTION AND SPEED IN MILES PER HOUR (MPH)
VRB    - VARIABLE WIND DIRECTION
PRES   - MEAN SEA LEVEL PRESSURE IN INCHES OF MERCURY
         F - FALLING PRESSURE   R - RISING PRESSURE
         S - STEADY PRESSURE
VSB    - VISIBILITY IN MILES
HX     - HEAT INDEX IN FAHRENHEIT
WCI    - WIND CHILL INDEX IN FAHRENHEIT
TC     - TEMPERATURE IN CELSIUS WHICH IS ALSO KNOWN AS
         TEMPERATURE IN CENTIGRADE
AFB    - AIR FORCE BASE
         LUKE AFB IS LUKE AIR FORCE BASE
         DAVIS-MONTHAN IS DAVIS-MONTHAN AIR FORCE BASE
NAS    - NAVAL AIR STATION
         EL CENTRO NAS IS EL CENTRO NAVAL AIR STATION
N/A    - NOT AVAILABLE



USA.gov is the U.S. government's official web portal to all federal, state and local government web resources and services.